TimeCXT,TemperatureF,Dew PointF,Humidity,Sea Level PressureIn,VisibilityMPH,Wind Direction,Wind SpeedMPH,Gust SpeedMPH,PrecipitationIn,Events,Conditions,WindDirDegrees,DateUTC
12:00 AM,77,76,95,29.81,,WNW,2.3,,,,,300,2013-04-11 17:00:00
12:00 AM,77.0,75.2,94,29.83,6.2,WNW,2.3,-,N/A,,Drizzle,300,2013-04-11 17:00:00
1:00 AM,77,76,94,29.78,,WNW,4.6,,,,,300,2013-04-11 18:00:00
1:00 AM,77.0,75.2,94,29.80,6.2,WNW,4.6,-,N/A,,Mostly Cloudy,300,2013-04-11 18:00:00
2:00 AM,77.0,75.2,94,29.80,6.2,NNW,4.6,-,N/A,Rain,Light Rain Showers,330,2013-04-11 19:00:00
3:00 AM,76,75,97,29.75,,West,3.5,,,,Overcast,270,2013-04-11 20:00:00
3:00 AM,77.0,75.2,94,29.80,6.2,West,3.5,-,N/A,,Mostly Cloudy,270,2013-04-11 20:00:00
4:00 AM,76,74,91,29.75,,WSW,2.3,,,,,240,2013-04-11 21:00:00
4:00 AM,75.2,73.4,94,29.80,6.2,WSW,2.3,-,N/A,,Scattered Clouds,240,2013-04-11 21:00:00
4:04 AM,75.2,73.4,94,29.80,6.2,SW,3.5,-,N/A,,Scattered Clouds,230,2013-04-11 21:04:00
4:09 AM,77.0,73.4,89,29.80,4.3,WSW,3.5,-,N/A,,Mostly Cloudy,240,2013-04-11 21:09:00
4:10 AM,77.0,73.4,89,29.80,3.1,WSW,3.5,-,N/A,,Mostly Cloudy,240,2013-04-11 21:10:00
4:16 AM,77.0,73.4,89,29.80,0.6,SW,3.5,-,N/A,,Mostly Cloudy,230,2013-04-11 21:16:00
4:26 AM,75.2,71.6,89,29.80,0.6,WSW,3.5,-,N/A,,Mostly Cloudy,250,2013-04-11 21:26:00
5:00 AM,75.2,71.6,89,29.80,6.2,West,4.6,-,N/A,,Unknown,260,2013-04-11 22:00:00
6:00 AM,76,74,91,29.77,,WSW,4.6,,,,Overcast,250,2013-04-11 23:00:00
6:00 AM,75.2,73.4,94,29.80,-9999.0,WSW,4.6,-,N/A,,Overcast,250,2013-04-11 23:00:00
7:00 AM,76,74,92,29.78,,WSW,4.6,,,,,250,2013-04-12 00:00:00
7:00 AM,75.2,73.4,94,29.83,6.2,WSW,4.6,-,N/A,,Scattered Clouds,250,2013-04-12 00:00:00
8:00 AM,78.8,73.4,83,29.83,6.2,SSW,4.6,-,N/A,,Unknown,210,2013-04-12 01:00:00
9:00 AM,80,76,84,29.81,,WSW,3.5,,,,Overcast,250,2013-04-12 02:00:00
9:00 AM,80.6,75.2,84,29.86,6.2,WSW,3.5,-,N/A,,Overcast,250,2013-04-12 02:00:00
10:00 AM,79,76,89,29.82,,Calm,Calm,,,,,,2013-04-12 03:00:00
10:00 AM,78.8,77.0,94,29.86,3.1,Calm,Calm,-,N/A,Rain,Heavy Rain,0,2013-04-12 03:00:00
10:43 AM,77.0,75.2,94,29.86,4.3,WNW,4.6,-,N/A,Rain,Rain,290,2013-04-12 03:43:00
10:51 AM,78.8,77.0,94,29.86,5.0,West,2.3,-,N/A,Rain,Light Rain,260,2013-04-12 03:51:00
11:00 AM,78.8,77.0,94,29.86,6.2,SW,3.5,-,N/A,,Drizzle,220,2013-04-12 04:00:00
12:00 PM,80,76,82,29.79,,South,2.3,,,,Overcast,180,2013-04-12 05:00:00
12:00 PM,80.6,75.2,84,29.83,6.2,South,2.3,-,N/A,,Overcast,180,2013-04-12 05:00:00
1:00 PM,83,77,79,29.78,,SSE,5.8,,,,,160,2013-04-12 06:00:00
1:00 PM,82.4,77.0,84,29.83,6.2,SSE,5.8,-,N/A,,Scattered Clouds,160,2013-04-12 06:00:00
2:00 PM,82.4,78.8,89,29.80,6.2,SE,4.6,-,N/A,,Scattered Clouds,140,2013-04-12 07:00:00
3:00 PM,82,80,90,29.75,,South,4.6,,,,,190,2013-04-12 08:00:00
3:00 PM,82.4,78.8,89,29.80,6.2,South,4.6,-,N/A,,Scattered Clouds,190,2013-04-12 08:00:00
4:00 PM,80.6,78.8,94,29.80,6.2,South,3.5,-,N/A,,Unknown,180,2013-04-12 09:00:00
5:00 PM,80.6,78.8,94,29.80,6.2,SSW,3.5,-,N/A,,Unknown,200,2013-04-12 10:00:00
6:00 PM,79,63,49,29.78,,Calm,Calm,,,,,,2013-04-12 11:00:00
6:00 PM,78.8,62.6,57,29.83,6.2,Calm,Calm,-,N/A,,Scattered Clouds,0,2013-04-12 11:00:00
7:00 PM,77,70,73,29.79,,Calm,Calm,,,,,,2013-04-12 12:00:00
7:00 PM,77.0,69.8,78,29.83,6.2,Calm,Calm,-,N/A,,Unknown,0,2013-04-12 12:00:00
8:00 PM,77.0,75.2,94,29.86,6.2,SW,3.5,-,N/A,,Unknown,220,2013-04-12 13:00:00
9:00 PM,77,75,93,29.83,,Calm,Calm,,,,,,2013-04-12 14:00:00
9:00 PM,77.0,75.2,94,29.86,6.2,Calm,Calm,-,N/A,,Scattered Clouds,0,2013-04-12 14:00:00
10:00 PM,77,75,92,29.85,,Calm,Calm,,,,,,2013-04-12 15:00:00
10:00 PM,77.0,75.2,94,29.89,6.2,Calm,Calm,-,N/A,,Unknown,0,2013-04-12 15:00:00
11:00 PM,77.0,75.2,94,29.89,6.2,SSW,1.2,-,N/A,Rain,Light Rain,210,2013-04-12 16:00:00